Total_Precipitation_Accumulation
0.00 0.00 0.00 0.00 0.00 0.00 0.00 0.00 0.00 0.00 0.01 0.03 0.04 0.04 0.04 0.04 0.03 0.03 0.03 0.04 0.04 0.04 0.05 0.05 0.04 0.04 0.05 0.06 0.06 0.07 0.07 0.07 0.08 0.11 0.12 0.14 0.17 0.18 0.19 0.24 0.38 0.51 0.54
0.00 0.00 0.00 0.00 0.00 0.00 0.00 0.00 0.00 0.00 0.01 0.01 0.02 0.02 0.02 0.02 0.02 0.02 0.02 0.02 0.02 0.03 0.03 0.03 0.03 0.02 0.02 0.02 0.02 0.03 0.04 0.03 0.03 0.07 0.13 0.10 0.09 0.13 0.14 0.13 0.22 0.34 0.43
0.00 0.00 0.00 0.00 0.00 0.00 0.00 0.00 0.00 0.00 0.00 0.01 0.01 0.02 0.02 0.01 0.01 0.02 0.02 0.01 0.01 0.01 0.01 0.01 0.01 0.01 0.01 0.02 0.02 0.02 0.05 0.06 0.04 0.07 0.21 0.28 0.18 0.11 0.06 0.08 0.13 0.16 0.20
0.00 0.00 0.00 0.00 0.00 0.00 0.00 0.00 0.00 0.00 0.00 0.01 0.01 0.01 0.01 0.01 0.01 0.01 0.00 0.01 0.01 0.01 0.01 0.01 0.01 0.01 0.01 0.02 0.02 0.03 0.04 0.08 0.09 0.07 0.10 0.19 0.23 0.28 0.15 0.03 0.03 0.03 0.05
0.00 0.00 0.00 0.00 0.00 0.00 0.00 0.00 0.00 0.00 0.00 0.01 0.01 0.01 0.01 0.00 0.00 0.00 0.01 0.01 0.01 0.01 0.01 0.01 0.01 0.01 0.02 0.02 0.03 0.04 0.05 0.08 0.12 0.13 0.13 0.12 0.12 0.17 0.27 0.13 0.03 0.03 0.03
0.00 0.00 0.00 0.00 0.00 0.00 0.00 0.00 0.00 0.00 0.00 0.00 0.01 0.01 0.01 0.00 0.00 0.01 0.01 0.01 0.01 0.01 0.01 0.01 0.02 0.02 0.02 0.03 0.04 0.06 0.07 0.09 0.11 0.15 0.17 0.22 0.24 0.19 0.25 0.21 0.07 0.03 0.03
0.00 0.00 0.00 0.00 0.00 0.00 0.00 0.00 0.00 0.00 0.00 0.00 0.01 0.01 0.00 0.00 0.00 0.01 0.01 0.01 0.03 0.02 0.02 0.02 0.02 0.03 0.04 0.05 0.07 0.10 0.11 0.12 0.14 0.17 0.19 0.21 0.23 0.22 0.28 0.30 0.17 0.07 0.02
0.00 0.00 0.00 0.00 0.00 0.00 0.00 0.00 0.00 0.00 0.00 0.00 0.00 0.00 0.00 0.00 0.00 0.00 0.01 0.02 0.03 0.03 0.02 0.02 0.03 0.03 0.05 0.07 0.11 0.14 0.15 0.17 0.20 0.20 0.21 0.23 0.20 0.22 0.28 0.35 0.39 0.30 0.09
0.00 0.00 0.00 0.00 0.00 0.00 0.00 0.00 0.00 0.00 0.00 0.00 0.00 0.00 0.00 0.00 0.00 0.01 0.01 0.01 0.01 0.01 0.02 0.03 0.05 0.07 0.08 0.10 0.12 0.15 0.17 0.20 0.24 0.25 0.27 0.29 0.25 0.24 0.26 0.31 0.44 0.61 0.42
0.00 0.00 0.00 0.00 0.00 0.00 0.00 0.00 0.00 0.00 0.00 0.00 0.00 0.00 0.00 0.00 0.00 0.01 0.01 0.01 0.01 0.02 0.03 0.04 0.08 0.12 0.14 0.16 0.17 0.19 0.19 0.21 0.24 0.28 0.32 0.35 0.35 0.33 0.33 0.33 0.35 0.46 0.57
0.00 0.00 0.00 0.00 0.00 0.00 0.00 0.00 0.00 0.01 0.00 0.00 0.00 0.00 0.00 0.00 0.01 0.02 0.02 0.03 0.03 0.03 0.05 0.07 0.10 0.13 0.18 0.22 0.25 0.26 0.27 0.29 0.28 0.28 0.31 0.33 0.37 0.43 0.43 0.42 0.42 0.40 0.45
0.00 0.00 0.00 0.00 0.00 0.00 0.00 0.01 0.01 0.01 0.00 0.00 0.00 0.00 0.00 0.01 0.02 0.04 0.06 0.06 0.06 0.07 0.09 0.13 0.16 0.20 0.23 0.27 0.33 0.36 0.37 0.42 0.41 0.38 0.37 0.39 0.41 0.45 0.48 0.51 0.49 0.44 0.40
0.00 0.00 0.00 0.00 0.00 0.01 0.01 0.02 0.02 0.01 0.00 0.00 0.00 0.00 0.00 0.01 0.03 0.06 0.10 0.15 0.19 0.21 0.23 0.26 0.32 0.38 0.41 0.43 0.46 0.50 0.58 0.64 0.63 0.60 0.59 0.54 0.53 0.55 0.52 0.54 0.54 0.49 0.42
0.00 0.00 0.00 0.00 0.01 0.01 0.02 0.02 0.01 0.01 0.01 0.00 0.00 0.01 0.01 0.04 0.06 0.09 0.15 0.25 0.34 0.41 0.47 0.51 0.54 0.60 0.67 0.78 0.83 0.81 0.82 0.81 0.78 0.77 0.77 0.77 0.75 0.74 0.71 0.69 0.63 0.58 0.56
0.00 0.00 0.00 0.01 0.02 0.02 0.02 0.02 0.01 0.01 0.01 0.01 0.01 0.02 0.05 0.10 0.17 0.20 0.23 0.31 0.40 0.48 0.52 0.54 0.55 0.60 0.81 1.15 1.27 1.11 0.90 0.76 0.72 0.71 0.72 0.80 0.90 0.96 1.00 1.05 0.91 0.79 0.80
0.00 0.01 0.01 0.02 0.03 0.03 0.03 0.02 0.02 0.03 0.02 0.02 0.03 0.06 0.11 0.18 0.25 0.29 0.32 0.39 0.45 0.48 0.47 0.48 0.48 0.50 0.68 1.07 1.21 0.93 0.65 0.53 0.55 0.60 0.59 0.60 0.72 0.80 0.86 1.00 1.01 1.02 1.09
0.01 0.01 0.03 0.03 0.04 0.04 0.04 0.04 0.03 0.03 0.02 0.04 0.06 0.10 0.13 0.17 0.20 0.23 0.28 0.33 0.31 0.27 0.30 0.35 0.35 0.34 0.45 0.81 0.94 0.66 0.36 0.27 0.32 0.40 0.44 0.45 0.52 0.63 0.66 0.69 0.71 0.79 0.92
0.04 0.04 0.04 0.04 0.03 0.03 0.03 0.03 0.02 0.01 0.02 0.04 0.07 0.10 0.12 0.16 0.14 0.13 0.17 0.20 0.17 0.17 0.20 0.21 0.18 0.16 0.23 0.56 0.75 0.53 0.23 0.17 0.21 0.29 0.34 0.34 0.38 0.51 0.69 0.75 0.64 0.56 0.67
0.04 0.04 0.04 0.03 0.02 0.02 0.02 0.02 0.01 0.01 0.02 0.04 0.05 0.07 0.10 0.14 0.12 0.10 0.11 0.14 0.14 0.13 0.12 0.11 0.08 0.06 0.10 0.38 0.70 0.56 0.22 0.17 0.16 0.21 0.30 0.29 0.26 0.43 0.61 0.67 0.60 0.48 0.51
0.02 0.03 0.02 0.01 0.01 0.01 0.01 0.01 0.00 0.00 0.01 0.02 0.03 0.03 0.04 0.06 0.05 0.04 0.03 0.04 0.06 0.06 0.06 0.04 0.04 0.03 0.04 0.21 0.62 0.68 0.30 0.21 0.16 0.17 0.23 0.31 0.33 0.44 0.52 0.53 0.55 0.58 0.52
0.01 0.01 0.01 0.01 0.00 0.00 0.00 0.00 0.00 0.00 0.00 0.00 0.00 0.00 0.00 0.01 0.01 0.02 0.02 0.02 0.03 0.03 0.03 0.03 0.03 0.03 0.03 0.07 0.39 0.77 0.55 0.33 0.23 0.22 0.26 0.28 0.32 0.38 0.43 0.48 0.54 0.66 0.58
0.00 0.00 0.00 0.00 0.00 0.00 0.00 0.00 0.00 0.00 0.00 0.00 0.00 0.00 0.00 0.01 0.01 0.02 0.02 0.02 0.03 0.04 0.04 0.04 0.03 0.03 0.03 0.06 0.24 0.52 0.65 0.50 0.32 0.29 0.21 0.21 0.25 0.31 0.36 0.40 0.46 0.48 0.49
0.00 0.00 0.00 0.00 0.00 0.00 0.00 0.00 0.00 0.00 0.00 0.00 0.00 0.00 0.01 0.01 0.02 0.02 0.03 0.03 0.04 0.06 0.08 0.07 0.06 0.05 0.05 0.09 0.22 0.27 0.33 0.42 0.38 0.37 0.35 0.24 0.23 0.25 0.23 0.24 0.31 0.34 0.36
0.00 0.00 0.00 0.00 0.00 0.00 0.00 0.00 0.00 0.00 0.00 0.00 0.01 0.01 0.01 0.02 0.02 0.03 0.04 0.05 0.08 0.19 0.23 0.18 0.15 0.11 0.10 0.20 0.36 0.27 0.19 0.24 0.33 0.34 0.30 0.23 0.20 0.18 0.14 0.13 0.16 0.20 0.27
0.00 0.00 0.00 0.00 0.00 0.00 0.00 0.00 0.00 0.00 0.00 0.01 0.01 0.01 0.02 0.03 0.03 0.04 0.04 0.06 0.09 0.27 0.40 0.32 0.31 0.31 0.33 0.40 0.52 0.46 0.41 0.40 0.42 0.42 0.39 0.30 0.24 0.22 0.18 0.14 0.11 0.14 0.20
0.00 0.00 0.00 0.00 0.00 0.00 0.00 0.00 0.00 0.00 0.01 0.01 0.02 0.02 0.04 0.04 0.04 0.05 0.05 0.05 0.08 0.14 0.17 0.20 0.28 0.29 0.40 0.43 0.38 0.39 0.41 0.43 0.43 0.46 0.46 0.29 0.22 0.20 0.19 0.18 0.15 0.13 0.15